1495645200.14,24593,15.75,73428.5,-1.45,-2.23,-2.23,0,*59
1495645201.34,24594,15.75,73426.3,-1.45,-2.19,-2.15,0,*52
1495645202.54,24595,15.75,73426.8,-1.45,-2.19,-2.15,0,*53
1495645203.82,24596,15.75,73426.3,-1.43,-2.03,-2.03,0,*5A
1495645205.09,24597,15.75,73426.0,-1.43,-1.91,-1.99,0,*53
1495645206.29,24598,15.75,73416.0,-1.45,-2.15,-2.15,0,*52
1495645207.55,24599,15.75,73418.3,-1.45,-2.07,-2.07,0,*53
1495645208.8,24600,15.75,73418.0,-1.45,-2.03,-2.03,0,*50
1495645210.08,24601,15.75,73414.3,-1.43,-1.99,-1.99,0,*57
1495645211.36,24602,15.75,73410.0,-1.43,-1.87,-1.87,0,*54
1495645212.61,24603,15.75,73406.5,-1.45,-2.03,-2.03,0,*53
1495645213.9,24604,15.75,73410.5,-1.43,-1.99,-1.99,0,*52
1495645215.18,24605,15.81,73412.8,-1.43,-1.99,-1.87,0,*5C
1495645216.43,24606,15.75,73424.3,-1.45,-1.95,-1.91,0,*52
1495645217.65,24607,15.75,73432.8,-1.43,-1.79,-1.79,0,*51
1495645218.93,24608,15.75,73442.3,-1.43,-2.11,-2.11,0,*5E
1495645220.12,24609,15.75,73444.3,-1.41,-2.19,-2.19,0,*5D
1495645221.34,24610,15.81,73424.8,-1.41,-2.43,-2.51,0,*56
1495645222.57,24611,15.75,73394.0,-1.43,-2.31,-2.31,0,*56
1495645223.76,24612,15.75,73400.0,-1.41,-2.19,-2.27,0,*5A
1495645224.98,24613,15.75,73404.8,-1.43,-2.19,-2.15,0,*58
1495645226.26,24614,15.75,73400.8,-1.43,-1.99,-1.99,0,*53
1495645227.51,24615,15.75,73408.3,-1.41,-1.91,-2.03,0,*58
1495645228.75,24616,15.75,73414.8,-1.41,-1.91,-2.03,0,*5B
1495645230.0,24617,15.75,73422.5,-1.41,-1.83,-1.83,0,*52
1495645231.22,24618,15.75,73424.8,-1.41,-1.91,-1.79,0,*5B
1495645232.46,24619,15.75,73432.0,-1.41,-1.91,-1.91,0,*5C
1495645233.71,24620,15.75,73422.3,-1.41,-1.99,-2.03,0,*56
1495645234.99,24621,15.75,73440.5,-1.39,-2.11,-2.11,0,*58
1495645236.21,24622,15.75,73434.5,-1.41,-1.95,-1.67,0,*59
1495645237.46,24623,15.75,73430.8,-1.41,-1.43,-1.39,0,*58
1495645238.72,24624,15.75,73422.0,-1.39,-1.95,-1.95,0,*5D
1495645240.0,24625,15.75,73402.5,-1.39,-1.99,-1.99,0,*5C
1495645241.19,24626,15.75,73416.3,-1.41,-2.19,-2.19,0,*50
1495645242.47,24627,15.75,73424.0,-1.39,-2.07,-2.07,0,*5E
1495645243.74,24628,15.75,73442.0,-1.39,-2.11,-2.11,0,*51
1495645244.99,24629,15.75,73438.8,-1.41,-2.03,-1.99,0,*5F
1495645246.24,24630,15.75,73442.8,-1.41,-2.11,-2.11,0,*57
1495645247.47,24631,15.75,73440.0,-1.39,-2.15,-2.23,0,*5C
1495645248.74,24632,15.75,73438.0,-1.39,-2.75,-2.71,0,*5E
1495645249.93,24633,15.75,73432.5,-1.41,-2.39,-2.43,0,*59
1495645251.13,24634,15.75,73420.0,-1.41,-2.31,-2.31,0,*53
1495645252.4,24635,15.75,73388.0,-1.39,-2.11,-2.11,0,*5D
1495645253.62,24636,15.75,73384.8,-1.41,-2.15,-2.11,0,*55
1495645254.87,24637,15.75,73392.3,-1.41,-2.11,-2.03,0,*53
1495645256.14,24638,15.75,73402.8,-1.39,-1.95,-1.99,0,*5C
1495645257.42,24639,15.75,73414.3,-1.39,-1.83,-1.83,0,*51
1495645258.69,24640,15.75,73406.8,-1.39,-1.83,-1.83,0,*5F
1495645259.97,24641,15.75,73412.3,-1.39,-2.07,-1.99,0,*5A
1495645261.24,24642,15.75,73436.5,-1.39,-1.99,-2.11,0,*5E
1495645262.5,24643,15.75,73424.3,-1.41,-2.03,-1.99,0,*53
1495645263.77,24644,15.75,73426.5,-1.39,-1.87,-1.83,0,*5F
1495645265.03,24645,15.75,73428.3,-1.35,-1.95,-1.95,0,*56
1495645266.3,24646,15.75,73428.3,-1.35,-1.91,-1.83,0,*56
1495645267.52,24647,15.75,73432.3,-1.35,-1.79,-1.79,0,*54
1495645268.74,24648,15.75,73434.8,-1.35,-1.67,-1.67,0,*5B
1495645269.96,24649,15.75,73434.0,-1.39,-1.63,-1.59,0,*5F
1495645271.19,24650,15.75,73434.0,-1.35,-1.71,-1.71,0,*52
1495645272.41,24651,15.75,73436.0,-1.31,-1.71,-1.59,0,*5D
1495645273.62,24652,15.75,73438.3,-1.35,-1.67,-1.59,0,*5D
1495645274.9,24653,15.75,73424.8,-1.31,-2.03,-2.03,0,*55
1495645276.17,24654,15.75,73418.3,-1.31,-2.07,-2.07,0,*52
1495645277.39,24655,15.75,73422.0,-1.31,-1.67,-1.67,0,*53
1495645278.62,24656,15.75,73426.0,-1.31,-1.71,-1.71,0,*50
1495645279.84,24657,15.75,73438.3,-1.31,-1.71,-1.67,0,*56
1495645281.07,24658,15.75,73436.3,-1.35,-1.71,-1.67,0,*5D
1495645282.33,24659,15.75,73434.8,-1.31,-1.95,-1.95,0,*5F
1495645283.55,24660,15.75,73430.8,-1.31,-1.79,-1.79,0,*55
1495645284.77,24661,15.75,73432.5,-1.31,-1.67,-1.67,0,*54
1495645285.97,24662,15.75,73428.3,-1.29,-1.67,-1.67,0,*5E
1495645287.16,24663,15.75,73428.5,-1.29,-1.75,-1.67,0,*5C
1495645288.36,24664,15.75,73448.3,-1.29,-1.75,-1.75,0,*58
1495645289.58,24665,15.75,73452.5,-1.27,-1.67,-1.67,0,*57
1495645290.77,24666,15.75,73440.8,-1.29,-1.75,-1.75,0,*5A
1495645291.96,24667,15.75,73432.3,-1.29,-1.75,-1.79,0,*57
1495645293.16,24668,15.75,73420.0,-1.29,-1.79,-1.79,0,*54
1495645294.38,24669,15.75,73426.3,-1.27,-2.15,-2.15,0,*5B
1495645295.57,24670,15.75,73426.5,-1.29,-2.19,-2.19,0,*5D
1495645296.75,24671,15.75,73428.8,-1.29,-2.27,-2.27,0,*5C
1495645297.94,24672,15.75,73424.8,-1.29,-2.39,-2.39,0,*5F
1495645299.14,24673,15.75,73438.8,-1.29,-2.31,-2.31,0,*5E
1495645300.42,24674,15.75,73440.0,-1.31,-1.05,-1.05,0,*50
1495645301.61,24675,15.75,73444.0,-1.29,-1.67,-1.63,0,*5C
1495645302.8,24676,15.75,73442.3,-1.29,-1.79,-1.75,0,*57
1495645304.05,24677,15.75,73440.0,-1.29,-2.03,-2.07,0,*5E
1495645305.27,24678,15.75,73428.8,-1.29,-2.15,-2.07,0,*56
1495645306.46,24679,15.75,73426.0,-1.29,-2.15,-2.15,0,*54
1495645307.71,24680,15.75,73452.0,-1.29,-2.07,-2.07,0,*52
1495645308.98,24681,15.75,73458.3,-1.31,-2.07,-2.03,0,*5E
1495645310.23,24682,15.75,73458.8,-1.29,-2.03,-2.03,0,*50
1495645311.48,24683,15.75,73452.8,-1.29,-2.63,-2.75,0,*56
1495645312.7,24684,15.75,73420.3,-1.35,-2.91,-2.83,0,*58
1495645313.92,24685,15.75,73418.3,-1.31,-2.31,-2.23,0,*5D
1495645315.19,24686,15.75,73424.8,-1.35,-2.07,-2.11,0,*5E
1495645316.41,24687,15.75,73426.5,-1.31,-2.35,-2.35,0,*5C
1495645317.68,24688,15.75,73426.5,-1.35,-2.55,-2.55,0,*57
1495645318.95,24689,15.75,73430.8,-1.35,-2.59,-2.59,0,*56
1495645320.17,24690,15.75,73420.5,-1.35,-2.23,-2.23,0,*5E
1495645321.44,24691,15.75,73418.8,-1.35,-2.11,-2.11,0,*5F
1495645322.67,24692,15.75,73416.0,-1.35,-2.31,-2.35,0,*58
1495645323.94,24693,15.75,73428.8,-1.35,-1.95,-1.83,0,*5A
1495645325.15,24694,15.75,73434.0,-1.35,-1.59,-1.59,0,*5A
1495645326.42,24695,15.75,73438.8,-1.31,-1.95,-2.07,0,*57
1495645327.64,24696,15.75,73434.3,-1.35,-2.19,-2.19,0,*58
1495645328.86,24697,15.75,73424.8,-1.35,-2.23,-2.35,0,*5E
1495645330.08,24698,15.75,73440.3,-1.35,-2.19,-2.31,0,*5C
1495645331.29,24699,15.75,73446.5,-1.35,-2.19,-2.19,0,*57
1495645332.57,24700,15.75,73440.3,-1.35,-2.11,-2.11,0,*56
1495645333.84,24701,15.75,73436.0,-1.35,-2.07,-2.03,0,*53
1495645335.1,24702,15.75,73434.5,-1.35,-2.11,-2.31,0,*56
1495645336.37,24703,15.75,73450.0,-1.35,-2.47,-2.47,0,*55
1495645337.59,24704,15.75,73440.3,-1.39,-2.15,-2.15,0,*5E
1495645338.87,24705,15.75,73438.8,-1.39,-2.07,-2.11,0,*58
1495645340.14,24706,15.75,73434.8,-1.39,-1.87,-1.87,0,*5C
1495645341.42,24707,15.75,73440.3,-1.39,-2.11,-2.11,0,*5D
1495645342.69,24708,15.75,73446.8,-1.35,-2.07,-2.07,0,*5E
1495645343.96,24709,15.75,73442.5,-1.35,-2.03,-1.95,0,*53
1495645345.23,24710,15.75,73430.3,-1.39,-2.07,-2.11,0,*5C
1495645346.45,24711,15.75,73412.5,-1.39,-2.23,-2.27,0,*5E
1495645347.72,24712,15.75,73432.0,-1.39,-2.71,-2.71,0,*59
1495645348.99,24713,15.75,73452.5,-1.39,-2.59,-2.59,0,*58
1495645350.21,24714,15.75,73454.8,-1.39,-2.23,-2.23,0,*5F
1495645351.43,24715,15.75,73442.5,-1.39,-2.15,-2.15,0,*5E
1495645352.65,24716,15.75,73428.0,-1.39,-2.27,-2.35,0,*5E
1495645353.86,24717,15.75,73442.3,-1.39,-2.27,-2.27,0,*5C
1495645355.05,24718,15.75,73434.5,-1.41,-2.39,-2.35,0,*50
1495645356.27,24719,15.75,73436.8,-1.39,-2.35,-2.35,0,*52
1495645357.54,24720,15.75,73428.5,-1.39,-2.59,-2.59,0,*58
1495645358.78,24721,15.75,73438.3,-1.41,-2.51,-2.59,0,*5E
1495645359.98,24722,15.75,73438.0,-1.41,-2.31,-2.31,0,*55
1495645361.2,24723,15.75,73432.3,-1.39,-2.15,-2.15,0,*5B
1495645362.4,24724,15.75,73434.3,-1.41,-2.15,-2.19,0,*5F
1495645363.59,24725,15.75,73428.5,-1.41,-2.19,-2.19,0,*52
1495645364.81,24726,15.75,73426.5,-1.39,-2.23,-2.15,0,*5B
1495645366.0,24727,15.75,73424.3,-1.41,-2.15,-2.19,0,*5C
1495645367.19,24728,15.75,73426.0,-1.41,-2.15,-2.15,0,*5F
1495645368.46,24729,15.75,73432.8,-1.39,-1.99,-1.95,0,*5D
1495645369.71,24730,15.75,73444.5,-1.41,-2.03,-2.03,0,*56
1495645370.9,24731,15.75,73452.0,-1.41,-1.75,-1.63,0,*50
1495645372.1,24732,15.75,73446.5,-1.41,-2.15,-2.15,0,*54
1495645373.37,24733,15.75,73444.0,-1.39,-2.11,-2.11,0,*5A
1495645374.64,24734,15.75,73444.0,-1.39,-1.87,-1.95,0,*5E
1495645375.83,24735,15.75,73436.5,-1.41,-2.27,-2.19,0,*5E
1495645377.05,24736,15.75,73430.5,-1.39,-2.23,-2.23,0,*5F
1495645378.27,24737,15.75,73444.8,-1.41,-2.19,-2.11,0,*59
1495645379.52,24738,15.75,73450.3,-1.41,-2.07,-2.03,0,*5A
1495645380.74,24739,15.75,73458.5,-1.41,-2.11,-2.15,0,*5B
1495645382.02,24740,15.75,73454.0,-1.39,-2.11,-2.11,0,*5E
1495645383.29,24741,15.75,73438.8,-1.39,-2.11,-2.11,0,*5F
1495645384.57,24742,15.75,73432.0,-1.39,-2.47,-2.47,0,*5C
1495645385.79,24743,15.75,73434.5,-1.39,-2.27,-2.35,0,*5E
1495645387.01,24744,15.75,73438.3,-1.41,-2.43,-2.51,0,*56
1495645388.29,24745,15.75,73438.8,-1.39,-2.11,-2.11,0,*5B
1495645389.5,24746,15.75,73436.5,-1.41,-2.15,-2.11,0,*53
1495645390.78,24747,15.75,73442.3,-1.39,-2.07,-2.11,0,*5E
1495645392.03,24748,15.75,73440.3,-1.41,-2.11,-1.91,0,*52
1495645393.25,24749,15.75,73446.3,-1.39,-1.63,-1.71,0,*54
1495645394.53,24750,15.75,73444.0,-1.39,-1.99,-1.99,0,*5F
1495645395.81,24751,15.69,73444.0,-1.39,-2.07,-2.07,0,*5E
1495645397.06,24752,15.75,73452.0,-1.41,-1.99,-2.03,0,*52
1495645398.33,24753,15.75,73462.8,-1.39,-1.95,-1.83,0,*5B
1495645399.6,24754,15.75,73450.5,-1.39,-1.87,-1.83,0,*5F
1495645400.84,24755,15.75,73428.3,-1.31,-1.79,-1.83,0,*57
1495645402.12,24756,15.75,73426.8,-1.35,-2.07,-2.11,0,*52
1495645403.34,24757,15.75,73432.0,-1.35,-2.31,-2.23,0,*57
1495645404.62,24758,15.75,73434.8,-1.35,-2.11,-2.11,0,*5B
1495645405.88,24759,15.75,73436.8,-1.35,-2.03,-1.95,0,*56
1495645407.16,24760,15.75,73442.3,-1.39,-2.07,-1.99,0,*58
1495645408.44,24761,15.75,73436.3,-1.39,-2.11,-2.11,0,*5D
1495645409.71,24762,15.75,73424.3,-1.35,-2.07,-2.07,0,*52
1495645410.99,24763,15.75,73430.5,-1.35,-2.11,-2.11,0,*53
1495645412.25,24764,15.75,73430.3,-1.35,-2.03,-1.95,0,*58
1495645413.53,24765,15.75,73440.0,-1.39,-1.99,-1.99,0,*59
1495645414.8,24766,15.75,73446.5,-1.31,-1.91,-1.91,0,*52
1495645416.06,24767,15.75,73450.8,-1.35,-1.91,-1.95,0,*53
1495645417.34,24768,15.75,73452.3,-1.35,-2.03,-2.07,0,*5C
1495645418.62,24769,15.75,73450.0,-1.35,-2.07,-2.07,0,*59
1495645419.87,24770,15.75,73452.0,-1.39,-2.11,-2.23,0,*5C
1495645421.09,24771,15.75,73458.8,-1.39,-2.23,-2.23,0,*5C
1495645422.37,24772,15.75,73458.3,-1.39,-2.11,-2.11,0,*5F
1495645423.64,24773,15.75,73458.0,-1.35,-2.55,-2.71,0,*54
1495645424.87,24774,15.75,73454.8,-1.35,-2.95,-2.95,0,*55
1495645426.09,24775,15.75,73448.5,-1.39,-2.35,-2.35,0,*58
1495645427.28,24776,15.75,73450.3,-1.41,-2.23,-2.27,0,*50
1495645428.47,24777,15.75,73446.8,-1.41,-2.15,-2.15,0,*55
1495645429.69,24778,15.75,73448.5,-1.39,-2.23,-2.15,0,*50
1495645430.91,24779,15.75,73452.3,-1.39,-2.15,-2.15,0,*54
1495645432.18,24780,15.75,73448.0,-1.39,-1.99,-1.95,0,*5E
1495645433.46,24781,15.75,73448.8,-1.39,-2.11,-2.11,0,*53
1495645434.72,24782,15.75,73448.8,-1.39,-1.95,-1.95,0,*50
1495645435.99,24783,15.69,73444.0,-1.39,-2.07,-2.11,0,*56
1495645437.21,24784,15.75,73454.3,-1.39,-2.15,-2.15,0,*56
1495645438.48,24785,15.75,73458.5,-1.39,-1.95,-1.87,0,*54
1495645439.73,24786,15.75,73452.8,-1.39,-1.51,-1.39,0,*5A
1495645441.0,24787,15.75,73448.8,-1.39,-1.87,-1.87,0,*55
1495645442.27,24788,15.75,73446.8,-1.35,-2.03,-2.03,0,*56
1495645443.52,24789,15.75,73450.3,-1.35,-2.19,-2.11,0,*5F
1495645444.79,24790,15.75,73452.0,-1.35,-2.03,-2.03,0,*5F
1495645446.06,24791,15.75,73446.5,-1.35,-1.91,-1.91,0,*5E
1495645447.28,24792,15.75,73440.5,-1.35,-1.79,-1.79,0,*5D
1495645448.55,24793,15.75,73438.3,-1.35,-2.07,-2.03,0,*58
1495645449.83,24794,15.69,73440.0,-1.35,-2.11,-2.11,0,*5B
1495645451.1,24795,15.75,73454.8,-1.35,-2.07,-2.03,0,*5E
1495645452.37,24796,15.75,73452.3,-1.35,-1.91,-1.91,0,*59
1495645453.64,24797,15.69,73454.0,-1.35,-1.83,-1.91,0,*5B
1495645454.92,24798,15.75,73454.5,-1.35,-2.07,-2.07,0,*57
1495645456.18,24799,15.75,73450.0,-1.35,-1.91,-1.95,0,*52
1495645457.45,24800,15.75,73452.0,-1.31,-1.83,-1.83,0,*5D
1495645458.67,24801,15.69,73454.0,-1.35,-1.67,-1.79,0,*57
1495645459.89,24802,15.75,73450.5,-1.31,-1.79,-1.79,0,*5F
1495645461.11,24803,15.69,73448.3,-1.31,-1.67,-1.67,0,*5E
1495645462.36,24804,15.75,73444.5,-1.35,-1.47,-1.55,0,*5E
1495645463.58,24805,15.69,73442.3,-1.31,-1.71,-1.67,0,*5F
1495645464.8,24806,15.75,73444.5,-1.31,-1.67,-1.67,0,*5B
1495645466.0,24807,15.75,73446.3,-1.29,-1.75,-1.79,0,*5F
1495645467.26,24808,15.69,73444.0,-1.31,-1.91,-1.91,0,*55
1495645468.45,24809,15.69,73432.3,-1.29,-1.75,-1.79,0,*51
1495645469.65,24810,15.69,73436.5,-1.29,-1.75,-1.67,0,*56
1495645470.85,24811,15.69,73440.0,-1.29,-1.63,-1.67,0,*50
1495645472.04,24812,15.69,73448.5,-1.29,-1.75,-1.67,0,*54
1495645473.29,24813,15.75,73446.8,-1.29,-1.87,-1.87,0,*56
1495645474.54,24814,15.69,73446.5,-1.29,-1.99,-1.91,0,*59
1495645475.78,24815,15.75,73452.3,-1.29,-1.91,-1.91,0,*50
1495645476.97,24816,15.69,73446.3,-1.29,-1.79,-1.79,0,*53
1495645478.24,24817,15.69,73446.5,-1.27,-1.87,-1.87,0,*5C
1495645479.52,24818,15.69,73448.8,-1.27,-1.87,-1.91,0,*54
1495645480.79,24819,15.75,73458.3,-1.27,-1.87,-1.87,0,*52
1495645481.98,24820,15.75,73458.3,-1.29,-1.67,-1.63,0,*52
1495645483.17,24821,15.75,73458.3,-1.29,-1.55,-1.55,0,*57
1495645484.39,24822,15.69,73454.5,-1.27,-1.55,-1.51,0,*5E
1495645485.58,24823,15.69,73454.5,-1.29,-1.79,-1.79,0,*55
1495645486.83,24824,15.69,73454.3,-1.29,-1.87,-1.99,0,*5D
1495645488.05,24825,15.69,73452.3,-1.27,-1.75,-1.75,0,*5D
1495645489.27,24826,15.69,73454.5,-1.27,-1.75,-1.75,0,*5E
1495645490.49,24827,15.75,73458.8,-1.27,-1.75,-1.79,0,*53
1495645491.71,24828,15.69,73460.3,-1.27,-1.67,-1.63,0,*54
1495645492.93,24829,15.69,73458.8,-1.27,-1.63,-1.63,0,*51
1495645494.2,24830,15.69,73460.8,-1.27,-1.91,-1.91,0,*59
1495645495.41,24831,15.69,73454.8,-1.25,-1.87,-1.75,0,*57
1495645496.6,24832,15.69,73454.8,-1.25,-1.63,-1.63,0,*59
1495645497.82,24833,15.69,73458.0,-1.27,-1.79,-1.75,0,*56
1495645499.04,24834,15.69,73458.8,-1.27,-1.63,-1.63,0,*5D
1495645500.23,24835,15.69,73454.5,-1.25,-1.59,-1.63,0,*57
1495645501.42,24836,15.69,73452.5,-1.25,-1.71,-1.75,0,*59
1495645502.61,24837,15.69,73454.3,-1.25,-1.75,-1.71,0,*58
1495645503.8,24838,15.69,73460.5,-1.25,-1.63,-1.59,0,*5A
1495645504.99,24839,15.69,73460.8,-1.25,-1.63,-1.63,0,*52
1495645506.26,24840,15.69,73458.8,-1.23,-1.87,-1.83,0,*5E
1495645507.48,24841,15.69,73450.3,-1.23,-1.75,-1.71,0,*5F
1495645508.73,24842,15.69,73442.8,-1.25,-1.99,-1.99,0,*5E
1495645509.98,24843,15.69,73448.3,-1.23,-1.87,-1.75,0,*54
1495645511.2,24844,15.69,73452.8,-1.23,-1.51,-1.51,0,*5E
1495645512.44,24845,15.69,73452.5,-1.25,-1.47,-1.47,0,*59
1495645513.71,24846,15.69,73448.8,-1.23,-1.47,-1.35,0,*59
1495645514.91,24847,15.69,73446.8,-1.21,-1.33,-1.33,0,*5F
1495645516.14,24848,15.69,73444.0,-1.23,-1.71,-1.71,0,*52
1495645517.37,24849,15.69,73448.0,-1.23,-1.71,-1.71,0,*53
1495645518.58,24850,15.69,73454.8,-1.23,-1.59,-1.51,0,*53
1495645519.81,24851,15.69,73456.0,-1.23,-1.71,-1.75,0,*5E
1495645521.0,24852,15.75,73456.8,-1.21,-1.55,-1.55,0,*5B
1495645522.19,24853,15.69,73456.5,-1.21,-1.79,-1.71,0,*52
1495645523.44,24854,15.69,73454.5,-1.21,-1.91,-1.91,0,*5D
1495645524.66,24855,15.69,73442.5,-1.21,-1.83,-1.71,0,*51
1495645525.85,24856,15.69,73438.8,-1.21,-1.55,-1.55,0,*5F
1495645527.07,24857,15.69,73436.8,-1.21,-1.47,-1.55,0,*5D
1495645528.32,24858,15.69,73434.0,-1.21,-1.83,-1.83,0,*51
1495645529.52,24859,15.69,73436.5,-1.21,-1.71,-1.71,0,*50
1495645530.71,24860,15.69,73436.5,-1.21,-1.67,-1.67,0,*5A
1495645531.9,24861,15.69,73444.5,-1.21,-1.59,-1.59,0,*5B
1495645533.14,24862,15.75,73452.3,-1.23,-1.75,-1.83,0,*53
1495645534.39,24863,15.69,73448.3,-1.21,-1.95,-1.91,0,*5D
1495645535.63,24864,15.69,73450.0,-1.21,-1.91,-1.91,0,*5E
1495645536.85,24865,15.69,73450.0,-1.21,-1.83,-1.79,0,*5A
1495645538.09,24866,15.69,73460.5,-1.21,-1.83,-1.83,0,*5C
1495645539.34,24867,15.69,73458.3,-1.21,-1.83,-1.83,0,*5D
1495645540.53,24868,15.69,73454.5,-1.21,-1.75,-1.79,0,*5E
1495645541.75,24869,15.69,73446.3,-1.21,-1.79,-1.83,0,*56
1495645542.99,24870,15.69,73442.5,-1.19,-2.19,-2.07,0,*5F
1495645544.24,24871,15.69,73440.0,-1.25,-2.51,-2.47,0,*59
1495645545.52,24872,15.69,73442.5,-1.23,-2.63,-2.63,0,*5B
1495645546.76,24873,15.69,73436.8,-1.25,-2.51,-2.51,0,*5C
1495645548.04,24874,15.69,73438.0,-1.23,-2.47,-2.51,0,*5A
1495645549.29,24875,15.69,73448.0,-1.27,-2.43,-2.55,0,*5F
1495645550.5,24876,15.69,73446.8,-1.27,-2.19,-2.19,0,*5B
1495645551.75,24877,15.69,73438.8,-1.27,-2.07,-2.19,0,*55
1495645553.02,24878,15.69,73438.0,-1.27,-2.07,-2.03,0,*51
1495645554.3,24879,15.69,73446.3,-1.27,-2.03,-2.03,0,*54
1495645555.54,24880,15.69,73436.5,-1.29,-2.03,-2.03,0,*5C
1495645556.82,24881,15.69,73438.0,-1.27,-2.03,-2.03,0,*53
1495645558.09,24882,15.69,73436.8,-1.27,-2.03,-2.03,0,*50
1495645559.34,24883,15.69,73438.3,-1.29,-2.03,-2.03,0,*5F
1495645560.59,24884,15.69,73442.0,-1.29,-1.99,-1.99,0,*58
1495645561.87,24885,15.69,73442.5,-1.27,-1.99,-1.91,0,*5F
1495645563.12,24886,15.69,73442.5,-1.29,-1.99,-1.91,0,*52
1495645564.39,24887,15.69,73440.3,-1.27,-1.91,-1.99,0,*5D
1495645565.64,24888,15.69,73448.0,-1.29,-2.03,-2.03,0,*54
1495645566.91,24889,15.69,73448.3,-1.27,-1.91,-1.99,0,*53
1495645568.18,24890,15.69,73450.0,-1.27,-2.03,-2.03,0,*53
1495645569.46,24891,15.69,73442.3,-1.27,-2.03,-2.07,0,*56
1495645570.71,24892,15.69,73456.5,-1.27,-2.07,-2.15,0,*52
1495645571.98,24893,15.69,73456.0,-1.27,-1.99,-1.99,0,*50
1495645573.23,24894,15.69,73458.8,-1.27,-2.03,-2.15,0,*50
1495645574.48,24895,15.69,73456.5,-1.27,-2.15,-2.07,0,*55
1495645575.73,24896,15.69,73450.5,-1.29,-2.07,-2.07,0,*5B
1495645576.98,24897,15.69,73454.8,-1.29,-2.07,-2.07,0,*5A
1495645578.26,24898,15.69,73456.0,-1.27,-1.99,-2.03,0,*5B
1495645579.5,24899,15.69,73456.5,-1.29,-1.91,-1.87,0,*53
1495645580.69,24900,15.69,73454.8,-1.29,-1.67,-1.67,0,*55
1495645581.91,24901,15.69,73456.8,-1.29,-1.75,-1.87,0,*59
1495645583.18,24902,15.69,73446.3,-1.27,-1.87,-1.87,0,*59
1495645584.46,24903,15.69,73444.8,-1.27,-2.03,-2.03,0,*58
1495645585.7,24904,15.69,73444.5,-1.29,-1.91,-1.99,0,*59
1495645586.95,24905,15.69,73444.8,-1.29,-1.87,-1.87,0,*50
1495645588.17,24906,15.69,73448.5,-1.27,-1.79,-1.79,0,*5D
1495645589.44,24907,15.69,73446.3,-1.27,-1.91,-1.99,0,*54
1495645590.68,24908,15.69,73450.5,-1.29,-1.91,-1.91,0,*5D
1495645591.9,24909,15.69,73442.5,-1.27,-1.75,-1.79,0,*5E
1495645593.17,24910,15.69,73434.8,-1.27,-1.91,-1.87,0,*5D
1495645594.44,24911,15.69,73444.3,-1.27,-1.91,-1.99,0,*53
1495645595.71,24912,15.69,73450.0,-1.27,-1.91,-1.91,0,*58
1495645596.96,24913,15.69,73458.3,-1.27,-1.79,-1.83,0,*5C
1495645598.15,24914,15.69,73458.0,-1.25,-1.71,-1.75,0,*58
1495645599.43,24915,15.69,73456.5,-1.27,-1.99,-1.99,0,*5F
1495645600.71,24916,15.69,73452.0,-1.27,-2.07,-2.07,0,*5C
1495645601.99,24917,15.69,73456.3,-1.27,-1.99,-2.03,0,*5D
1495645603.23,24918,15.69,73456.8,-1.29,-1.91,-1.99,0,*54
1495645604.48,24919,15.69,73452.3,-1.27,-1.87,-1.79,0,*52
1495645605.7,24920,15.69,73460.5,-1.27,-1.75,-1.75,0,*59
1495645606.92,24921,15.69,73460.8,-1.27,-1.79,-1.75,0,*54
1495645608.14,24922,15.69,73456.0,-1.27,-1.79,-1.79,0,*5B
1495645609.36,24923,15.69,73454.3,-1.27,-1.79,-1.75,0,*56
1495645610.58,24924,15.69,73452.3,-1.27,-1.75,-1.75,0,*5D
1495645611.78,24925,15.69,73446.3,-1.25,-1.71,-1.71,0,*5E
1495645612.97,24926,15.69,73448.3,-1.25,-1.71,-1.71,0,*5D
1495645614.17,24927,15.69,73450.3,-1.25,-1.71,-1.71,0,*5C
1495645615.36,24928,15.69,73448.3,-1.25,-1.63,-1.59,0,*5A
1495645616.57,24929,15.69,73446.3,-1.25,-1.51,-1.47,0,*55
1495645617.76,24930,15.69,73442.3,-1.25,-1.63,-1.59,0,*53
1495645618.95,24931,15.69,73460.5,-1.25,-1.71,-1.63,0,*58
1495645620.18,24932,15.69,73456.5,-1.23,-1.71,-1.63,0,*5D
1495645621.42,24933,15.69,73446.5,-1.25,-1.99,-1.95,0,*55
1495645622.66,24934,15.69,73450.0,-1.25,-1.95,-1.99,0,*52
1495645623.91,24935,15.69,73458.8,-1.25,-2.11,-2.11,0,*5F
1495645625.13,24936,15.69,73448.3,-1.23,-1.71,-1.63,0,*59
1495645626.35,24937,15.69,73444.3,-1.23,-1.63,-1.59,0,*52
1495645627.53,24938,15.69,73450.5,-1.25,-1.59,-1.51,0,*5A
1495645628.72,24939,15.69,73448.0,-1.25,-1.63,-1.63,0,*53
1495645629.91,24940,15.69,73450.0,-1.25,-1.59,-1.63,0,*54
1495645631.15,24941,15.69,73452.3,-1.25,-1.83,-1.83,0,*5C
1495645632.37,24942,15.69,73458.3,-1.23,-1.51,-1.51,0,*59
1495645633.64,24943,15.69,73454.0,-1.23,-1.35,-1.39,0,*54
1495645634.86,24944,15.69,73456.8,-1.23,-1.63,-1.63,0,*5F
1495645636.08,24945,15.69,73458.3,-1.23,-1.59,-1.71,0,*54
1495645637.32,24946,15.69,73454.3,-1.23,-1.59,-1.47,0,*52
1495645638.56,24947,15.69,73448.0,-1.21,-1.35,-1.35,0,*5E
1495645639.8,24948,15.69,73444.8,-1.19,-1.79,-1.87,0,*5B
1495645641.06,24949,15.69,73448.0,-1.21,-1.99,-1.99,0,*50
1495645642.26,24950,15.69,73462.3,-1.21,-1.71,-1.67,0,*5F
1495645643.45,24951,15.69,73458.8,-1.21,-1.55,-1.59,0,*55
1495645644.66,24952,15.69,73458.8,-1.21,-1.59,-1.47,0,*55
1495645645.88,24953,15.69,73456.5,-1.19,-1.63,-1.67,0,*54
1495645647.08,24954,15.69,73458.0,-1.21,-1.79,-1.71,0,*54
1495645648.27,24955,15.69,73456.3,-1.21,-1.63,-1.55,0,*58
1495645649.51,24956,15.69,73450.5,-1.21,-1.47,-1.47,0,*5E
1495645650.72,24957,15.69,73442.8,-1.19,-1.55,-1.55,0,*54
1495645651.92,24958,15.69,73446.0,-1.21,-1.55,-1.55,0,*50
1495645653.12,24959,15.69,73448.5,-1.21,-1.71,-1.71,0,*51
1495645654.33,24960,15.69,73454.8,-1.19,-1.75,-1.63,0,*57
1495645655.55,24961,15.69,73450.5,-1.19,-1.67,-1.63,0,*55
1495645656.76,24962,15.69,73444.5,-1.19,-1.63,-1.63,0,*52
1495645657.98,24963,15.69,73442.8,-1.19,-1.51,-1.51,0,*53
1495645659.17,24964,15.69,73428.5,-1.21,-1.55,-1.55,0,*5F
1495645660.38,24965,15.69,73432.5,-1.19,-1.55,-1.55,0,*55
1495645661.6,24966,15.69,73442.3,-1.19,-1.67,-1.67,0,*56
1495645662.81,24967,15.69,73438.8,-1.19,-2.15,-2.15,0,*57
1495645664.08,24968,15.69,73440.8,-1.19,-2.03,-1.95,0,*54
1495645665.29,24969,15.69,73442.0,-1.19,-1.79,-1.79,0,*59
1495645666.56,24970,15.69,73434.5,-1.19,-1.91,-1.91,0,*51
1495645667.75,24971,15.69,73428.8,-1.21,-2.19,-2.19,0,*5B
1495645669.01,24972,15.69,73426.0,-1.19,-1.95,-1.95,0,*53
1495645670.23,24973,15.69,73430.5,-1.21,-1.79,-1.91,0,*5F
1495645671.49,24974,15.69,73430.0,-1.19,-1.91,-1.91,0,*55
1495645672.73,24975,15.69,73436.0,-1.21,-1.91,-1.91,0,*5F
1495645673.98,24976,15.69,73436.3,-1.19,-1.79,-1.87,0,*56
1495645675.24,24977,15.69,73440.0,-1.19,-1.91,-1.91,0,*56
1495645676.48,24978,15.69,73446.5,-1.21,-1.95,-1.95,0,*52
1495645677.7,24979,15.69,73446.5,-1.25,-1.87,-1.71,0,*5E
1495645678.92,24980,15.69,73444.0,-1.23,-1.63,-1.71,0,*54
1495645680.19,24981,15.69,73444.0,-1.23,-1.83,-1.87,0,*52
1495645681.43,24982,15.69,73440.8,-1.21,-1.91,-1.95,0,*53
1495645682.66,24983,15.69,73444.5,-1.21,-1.95,-1.95,0,*56
1495645683.91,24984,15.69,73448.8,-1.21,-1.91,-1.91,0,*51
1495645685.12,24985,15.69,73442.5,-1.25,-1.83,-1.75,0,*5D
1495645686.4,24986,15.69,73442.8,-1.23,-2.11,-2.03,0,*52
1495645687.62,24987,15.69,73442.3,-1.23,-2.23,-2.23,0,*50
1495645688.89,24988,15.69,73440.5,-1.23,-2.03,-2.03,0,*5F
1495645690.13,24989,15.69,73440.5,-1.25,-1.95,-1.95,0,*58
1495645691.36,24990,15.69,73438.3,-1.25,-1.95,-1.95,0,*50
1495645692.58,24991,15.69,73450.8,-1.23,-1.29,-1.29,0,*57
1495645693.78,24992,15.69,73450.5,-1.23,0.01,-0.03,0,*7B
1495645694.99,24993,15.69,73448.3,-1.23,-1.25,-1.29,0,*59
1495645696.21,24994,15.69,73440.5,-1.23,-1.75,-1.75,0,*52
1495645697.41,24995,15.69,73442.0,-1.21,-1.67,-1.63,0,*55
1495645698.65,24996,15.69,73442.8,-1.21,-1.95,-2.07,0,*5A
1495645699.9,24997,15.69,73444.3,-1.21,-1.99,-2.07,0,*57
1495645701.1,24998,15.69,73444.0,-1.21,-1.55,-1.67,0,*5D
1495645702.31,24999,15.69,73446.8,-1.19,-0.19,-0.37,0,*5A
1495645703.54,25000,15.69,73448.0,-1.17,-0.93,-1.01,0,*6A
1495645704.73,25001,15.69,73448.3,-1.17,-1.63,-1.55,0,*54
1495645705.97,25002,15.69,73448.5,-1.17,-1.95,-2.07,0,*5A
1495645707.19,25003,15.69,73448.5,-1.17,-2.07,-2.15,0,*50
1495645708.42,25004,15.69,73448.3,-1.17,-1.95,-1.95,0,*54
1495645709.67,25005,15.69,73450.5,-1.21,-1.99,-1.99,0,*50
1495645710.92,25006,15.69,73450.3,-1.21,-2.03,-2.03,0,*53